Wind_Speed
13 14 15 15 16 17 18 18 18 17 17 16 14 13 12 12 12 12 11 11 11 11 11 12 12 13 13 14 14 14 15 15 15 15 15 16 16 16 17 17 17 18 19
13 14 15 15 16 17 19 18 19 18 17 16 15 13 13 13 12 12 12 13 13 13 13 14 14 14 15 15 16 16 16 17 17 17 17 17 17 18 18 19 19 20 21
14 14 15 16 16 17 18 19 19 18 18 17 16 15 15 14 14 13 13 14 14 14 15 16 16 16 17 17 17 18 18 18 18 18 19 19 19 20 20 21 21 22 23
14 14 15 15 16 17 18 17 18 18 18 18 17 16 16 16 15 14 14 15 15 16 17 17 17 18 19 19 19 19 19 20 20 20 20 21 22 23 23 23 24 25 26
14 14 15 15 16 18 17 17 18 18 18 17 16 16 16 16 16 15 15 16 17 18 18 19 19 20 20 21 21 21 21 22 22 23 24 24 24 25 26 27 27 28 28
14 14 15 15 16 17 18 17 17 17 17 16 16 17 17 16 16 16 17 18 18 19 20 20 21 22 22 22 22 23 23 24 25 26 26 26 27 28 29 30 31 31 31
14 15 16 17 17 17 18 18 18 17 17 16 17 16 17 17 18 18 19 19 20 21 21 22 23 23 23 24 25 25 26 26 27 28 29 29 30 30 31 32 33 34 34
14 15 16 17 17 17 17 17 18 18 17 18 18 18 19 20 20 21 21 22 23 23 24 24 25 25 25 25 26 26 28 29 29 30 31 31 33 34 34 35 36 37 37
15 16 16 16 16 16 17 17 17 17 18 19 19 20 21 21 22 23 23 25 25 25 25 26 27 27 28 28 28 29 30 31 32 32 33 34 35 36 37 38 39 39 40
16 16 17 16 16 16 16 16 17 17 18 18 19 21 21 22 23 24 25 26 26 27 27 28 29 30 30 30 30 31 32 33 34 35 35 36 37 37 39 41 42 43 43
16 16 17 17 17 17 17 17 18 18 18 19 19 20 21 22 23 24 25 25 27 28 28 29 30 31 32 32 33 34 35 36 37 37 38 39 40 41 43 44 45 46 45
17 17 17 17 17 17 17 18 19 19 19 20 20 20 21 22 23 24 25 26 26 27 28 29 30 31 32 34 35 36 38 38 40 41 42 42 43 44 45 46 46 46 46
17 17 17 17 18 18 18 19 19 19 19 20 20 21 22 23 24 25 27 27 28 28 30 31 32 33 34 35 37 38 40 41 42 42 42 43 44 45 46 47 47 47 47
18 18 18 18 18 18 19 19 19 20 20 21 22 23 24 25 26 26 28 29 30 30 32 33 34 35 36 37 38 39 41 42 43 44 44 45 46 47 47 48 49 49 49
19 19 19 19 19 19 20 20 21 22 22 23 24 25 26 26 27 27 28 29 31 33 34 34 36 37 38 39 40 41 42 44 45 45 46 47 48 48 48 49 50 50 50
21 21 21 21 22 22 22 22 24 25 25 26 26 27 27 27 27 28 30 31 32 33 34 36 38 39 40 41 41 42 42 43 44 45 46 47 48 49 50 50 51 51 51
22 22 23 23 23 24 24 25 26 26 27 27 27 28 28 29 29 30 31 32 33 35 37 37 38 40 41 42 42 43 43 44 45 46 47 48 49 49 50 50 51 51 50
22 23 24 26 26 26 26 27 28 28 28 28 29 29 30 31 32 33 33 34 35 37 38 39 41 42 43 43 44 44 45 46 47 47 47 48 49 50 51 51 52 51 50
23 24 24 26 27 28 28 28 29 29 29 30 30 31 33 33 34 35 35 37 38 39 40 42 43 43 44 45 45 46 46 47 48 49 49 50 50 51 51 51 51 50 49
25 25 26 27 28 29 29 29 30 31 31 31 32 33 34 35 35 36 38 39 40 41 43 44 44 45 46 46 46 46 47 48 49 49 49 49 50 50 50 50 50 50 50
27 27 28 30 29 29 30 30 30 31 32 33 34 35 35 36 37 39 40 41 42 43 43 44 45 45 46 47 47 47 47 48 48 48 48 48 48 48 48 48 48 48 48
27 28 29 29 29 30 31 31 32 33 34 35 36 36 37 38 39 40 41 42 43 44 45 45 46 46 46 46 46 46 47 47 47 47 47 47 47 47 47 47 47 46 45
27 28 28 28 29 30 31 31 33 34 34 35 36 36 38 40 41 41 42 43 44 45 45 45 46 46 46 46 46 46 46 46 46 46 46 46 45 45 45 44 43 42 41
28 28 29 30 30 31 32 32 33 34 35 37 38 39 40 40 41 42 44 45 45 46 46 46 46 45 45 45 45 45 45 46 45 44 43 43 42 42 41 40 40 39 38
26 27 28 29 30 30 30 31 32 33 35 37 38 39 40 41 42 44 45 44 44 45 45 44 44 44 44 44 44 44 44 44 43 42 41 41 40 39 39 38 37 36 36
23 24 26 27 28 28 29 31 33 34 36 38 39 40 42 43 43 44 43 43 43 43 43 43 44 44 43 43 43 42 42 41 40 40 39 39 38 38 38 36 35 34 33
Wind_Direction
224 222 220 218 211 207 208 211 211 212 214 219 222 223 227 233 241 244 250 255 260 265 270 275 280 284 290 294 297 300 301 303 304 306 306 306 305 305 305 305 304 304 304
226 225 221 216 214 212 212 214 212 213 217 220 225 227 232 240 246 251 256 258 263 268 272 276 280 284 288 292 294 296 297 300 301 302 303 304 304 304 303 303 303 303 303
225 224 219 217 216 214 214 213 213 216 221 224 228 231 237 245 251 257 261 264 267 271 276 278 280 282 286 289 291 293 295 298 300 300 301 302 302 302 303 303 302 301 301
222 220 216 216 214 212 212 213 215 219 222 227 233 237 242 249 254 259 263 268 271 275 279 280 280 282 285 288 290 292 294 296 297 298 298 300 301 301 301 301 300 300 300
220 218 215 214 213 211 212 215 219 222 226 232 235 240 245 251 256 261 266 270 275 279 281 282 284 285 287 288 289 290 292 294 295 296 297 298 300 301 300 299 298 298 299
219 216 213 213 213 213 217 219 223 226 230 237 241 245 249 253 258 263 267 273 278 281 283 285 286 287 287 288 288 289 291 293 294 296 297 297 298 299 298 298 297 297 297
218 215 215 214 214 217 220 223 227 231 237 243 245 248 251 255 260 264 269 274 279 281 284 286 286 286 287 288 289 290 290 292 293 295 295 295 296 297 298 297 297 297 297
217 214 214 215 216 222 224 226 230 234 240 247 250 251 254 257 261 266 271 276 280 282 283 285 286 287 286 288 289 290 291 292 293 294 296 295 295 295 296 296 296 296 296
218 217 216 217 221 225 227 229 234 239 244 251 254 256 258 260 264 269 273 277 281 282 283 285 287 288 287 288 290 290 291 291 292 294 294 295 295 296 296 296 296 296 296
222 221 222 224 226 229 232 236 239 243 249 255 259 260 261 263 266 270 275 277 279 281 283 284 286 286 287 288 290 291 290 290 291 292 293 293 295 295 296 296 296 297 297
225 224 226 228 231 235 238 241 244 249 254 257 260 262 263 264 267 272 275 278 280 281 283 285 286 286 287 288 289 290 291 290 291 292 292 293 293 294 295 295 296 298 298
226 227 229 232 236 242 244 247 250 253 257 261 263 265 267 269 271 275 279 282 283 284 285 286 287 288 287 288 290 290 291 291 292 292 293 293 294 295 294 294 295 296 296
231 231 233 236 240 244 247 250 252 255 259 261 265 268 270 273 277 278 279 282 285 287 287 288 288 288 289 289 289 290 290 292 293 293 294 294 295 296 296 296 295 295 295
233 235 239 242 245 247 249 251 255 258 261 264 267 270 274 276 279 280 281 282 284 286 287 288 289 290 290 290 291 291 291 292 293 293 294 295 295 295 295 296 295 295 295
237 239 242 244 246 249 252 255 258 260 263 267 270 272 275 278 280 282 284 285 286 287 287 288 290 291 291 291 292 293 293 294 294 294 294 295 295 296 296 296 296 296 296
243 244 246 249 251 254 257 259 262 263 266 269 272 275 278 281 283 285 286 287 288 289 290 291 292 292 293 293 294 294 294 295 296 297 296 296 297 297 297 297 298 298 298
247 249 250 252 254 257 260 263 265 267 269 271 274 277 280 282 284 286 288 289 289 290 291 291 292 293 293 293 294 294 295 295 297 297 297 297 297 298 298 298 298 298 298
251 252 254 255 258 260 262 265 266 268 269 273 276 279 282 284 285 287 288 289 290 291 292 293 294 293 294 294 295 296 296 296 297 297 297 297 297 297 298 298 299 298 297
253 254 257 259 260 260 262 265 267 269 271 274 276 279 282 283 285 287 288 289 291 292 292 293 294 294 295 295 295 296 296 296 297 297 297 297 297 297 298 298 298 297 296
256 258 259 262 263 262 264 267 269 272 274 276 278 279 282 285 286 288 289 290 291 292 293 293 294 294 295 295 296 296 296 296 297 297 297 297 297 298 298 298 298 297 297
257 259 262 265 265 266 270 272 274 277 279 282 283 284 286 286 288 290 291 291 292 293 294 294 295 296 296 296 297 297 297 297 297 297 297 298 298 298 298 299 299 298 297
259 262 265 264 266 271 273 274 277 280 282 283 285 286 287 287 289 290 291 292 293 294 295 296 297 297 298 298 298 298 297 297 297 298 298 298 298 299 299 300 299 299 298
263 266 267 268 270 272 274 277 279 281 283 285 286 288 289 289 290 291 292 294 295 295 296 296 297 298 298 298 297 297 297 297 298 298 299 300 301 300 300 300 300 300 299
263 265 268 269 272 274 276 278 280 281 283 284 287 288 289 289 290 292 294 294 295 295 296 296 297 297 297 297 296 297 298 298 299 300 300 301 301 301 300 300 300 300 298
266 267 269 271 273 275 278 280 282 284 286 287 288 289 291 292 293 294 295 295 296 297 298 298 298 298 297 297 297 297 298 298 299 299 300 300 300 300 300 300 300 300 299
275 276 276 277 278 280 282 283 286 288 289 290 291 292 293 294 295 296 297 298 298 298 298 298 298 298 297 297 298 298 298 298 298 299 300 300 301 301 300 300 299 300 300
Height
5825 5827 5829 5832 5835 5838 5842 5846 5850 5853 5857 5860 5862 5865 5867 5869 5870 5871 5872 5873 5873 5874 5874 5874 5874 5874 5874 5873 5872 5871 5870 5869 5868 5868 5866 5865 5863 5862 5861 5859 5858 5857 5855
5823 5825 5827 5829 5832 5836 5840 5844 5847 5851 5854 5857 5860 5862 5864 5866 5867 5868 5869 5870 5870 5871 5871 5871 5871 5871 5870 5870 5869 5868 5867 5866 5865 5864 5863 5861 5859 5858 5856 5855 5854 5852 5851
5820 5822 5824 5827 5830 5833 5837 5840 5844 5848 5851 5854 5857 5859 5861 5863 5864 5865 5866 5867 5867 5867 5867 5868 5867 5867 5867 5866 5865 5864 5863 5862 5861 5860 5858 5857 5855 5854 5852 5850 5849 5847 5845
5818 5820 5822 5825 5827 5831 5834 5838 5841 5845 5848 5851 5853 5856 5858 5859 5861 5862 5863 5863 5863 5864 5864 5863 5863 5863 5862 5862 5861 5860 5859 5857 5856 5855 5854 5852 5850 5849 5847 5845 5843 5841 5839
5815 5818 5820 5823 5825 5829 5832 5836 5839 5842 5845 5848 5850 5852 5854 5855 5857 5858 5859 5859 5859 5860 5859 5859 5859 5858 5858 5857 5856 5855 5854 5852 5851 5850 5848 5847 5845 5843 5841 5839 5837 5834 5832
5813 5816 5818 5821 5824 5827 5830 5834 5836 5839 5842 5844 5846 5848 5850 5851 5853 5854 5855 5855 5855 5855 5855 5854 5854 5853 5852 5852 5851 5849 5848 5847 5845 5844 5842 5840 5838 5836 5833 5831 5829 5827 5825
5811 5814 5816 5819 5822 5825 5827 5831 5834 5836 5839 5840 5842 5844 5846 5847 5849 5849 5850 5850 5850 5850 5849 5849 5848 5848 5847 5846 5844 5843 5842 5840 5838 5837 5835 5832 5830 5828 5825 5823 5820 5818 5815
5809 5812 5814 5817 5820 5822 5825 5828 5831 5833 5835 5837 5838 5840 5841 5843 5844 5844 5845 5845 5844 5844 5844 5843 5842 5841 5840 5839 5838 5837 5835 5833 5831 5829 5827 5825 5822 5819 5816 5814 5811 5809 5806
5807 5809 5812 5815 5817 5820 5822 5825 5827 5829 5831 5832 5834 5835 5836 5837 5838 5839 5839 5839 5838 5838 5837 5837 5836 5835 5833 5832 5831 5829 5828 5826 5823 5821 5819 5816 5813 5810 5807 5804 5801 5798 5796
5804 5806 5809 5812 5814 5816 5819 5821 5823 5825 5826 5828 5829 5829 5830 5832 5832 5832 5832 5832 5831 5831 5830 5830 5829 5828 5826 5824 5823 5822 5820 5817 5815 5813 5810 5807 5804 5801 5797 5794 5790 5787 5784
5801 5803 5806 5808 5810 5812 5815 5817 5819 5820 5822 5822 5823 5824 5824 5825 5826 5826 5825 5825 5824 5823 5823 5822 5821 5819 5818 5816 5815 5813 5811 5808 5806 5803 5800 5798 5794 5791 5787 5783 5779 5775 5771
5797 5800 5802 5804 5806 5809 5810 5812 5814 5815 5816 5817 5818 5819 5819 5819 5819 5819 5819 5818 5817 5816 5815 5814 5812 5811 5809 5808 5806 5803 5801 5798 5796 5793 5790 5787 5783 5779 5775 5771 5767 5763 5759
5794 5796 5799 5801 5803 5805 5807 5808 5809 5811 5812 5812 5813 5813 5813 5813 5813 5812 5812 5811 5809 5808 5807 5805 5804 5802 5800 5798 5796 5793 5791 5788 5785 5782 5778 5775 5771 5767 5762 5758 5754 5750 5745
5790 5793 5794 5796 5798 5800 5802 5803 5804 5805 5806 5807 5807 5807 5807 5806 5806 5805 5804 5803 5801 5800 5798 5796 5795 5793 5791 5788 5786 5783 5780 5777 5773 5770 5766 5762 5758 5754 5749 5745 5740 5736 5732
5786 5788 5790 5791 5793 5795 5796 5797 5798 5799 5800 5800 5800 5800 5799 5799 5798 5797 5796 5795 5793 5791 5789 5787 5785 5783 5780 5777 5775 5772 5768 5765 5761 5757 5753 5749 5745 5740 5736 5731 5726 5721 5717
5781 5783 5785 5786 5788 5789 5790 5791 5792 5792 5793 5793 5793 5792 5792 5791 5790 5789 5787 5786 5784 5782 5780 5778 5775 5772 5770 5767 5763 5760 5756 5752 5748 5744 5740 5736 5731 5726 5722 5717 5712 5707 5702
5776 5778 5779 5780 5782 5783 5783 5784 5785 5785 5785 5785 5785 5784 5783 5782 5781 5780 5778 5776 5774 5772 5770 5768 5765 5762 5758 5755 5751 5747 5743 5739 5735 5730 5726 5722 5717 5712 5707 5703 5698 5693 5688
5770 5771 5773 5774 5775 5776 5776 5777 5777 5777 5777 5777 5776 5776 5775 5774 5772 5770 5768 5766 5764 5762 5759 5757 5753 5750 5747 5743 5739 5735 5730 5726 5722 5717 5713 5708 5703 5698 5693 5688 5683 5678 5673
5764 5765 5766 5767 5768 5768 5769 5769 5769 5769 5769 5768 5768 5767 5765 5764 5762 5761 5758 5756 5754 5751 5748 5745 5741 5738 5734 5730 5726 5721 5717 5713 5708 5704 5699 5694 5689 5684 5679 5674 5669 5664 5659
5757 5758 5759 5760 5760 5761 5761 5761 5761 5760 5759 5759 5758 5757 5756 5754 5752 5750 5748 5745 5742 5740 5736 5733 5729 5725 5721 5717 5713 5708 5704 5699 5695 5690 5685 5680 5675 5669 5664 5659 5654 5649 5644
5751 5752 5752 5752 5753 5753 5752 5752 5752 5752 5751 5749 5748 5746 5745 5743 5741 5739 5736 5734 5730 5727 5724 5720 5716 5712 5707 5703 5699 5695 5690 5686 5680 5676 5671 5665 5660 5655 5650 5645 5640 5635 5629
5744 5745 5745 5745 5745 5744 5744 5744 5743 5743 5741 5740 5738 5737 5735 5732 5730 5728 5725 5722 5719 5715 5711 5707 5703 5699 5694 5690 5686 5681 5677 5672 5667 5662 5657 5652 5646 5641 5636 5631 5626 5621 5616
5736 5736 5737 5736 5736 5736 5736 5735 5734 5733 5732 5730 5728 5727 5725 5722 5719 5716 5713 5710 5706 5702 5698 5694 5689 5685 5681 5677 5672 5668 5663 5658 5653 5648 5643 5638 5633 5628 5623 5618 5613 5608 5604
5728 5728 5728 5728 5728 5728 5727 5726 5725 5724 5722 5720 5718 5716 5714 5711 5707 5704 5701 5697 5693 5689 5685 5681 5676 5672 5667 5663 5659 5654 5650 5645 5640 5635 5630 5625 5620 5615 5611 5606 5602 5597 5593
5720 5720 5720 5720 5720 5719 5718 5717 5715 5713 5712 5710 5707 5704 5702 5699 5695 5692 5687 5683 5680 5676 5671 5667 5663 5659 5654 5650 5646 5641 5637 5632 5627 5623 5618 5614 5609 5604 5599 5595 5591 5587 5583
5713 5713 5713 5712 5711 5710 5709 5707 5706 5704 5701 5699 5696 5693 5689 5686 5682 5678 5674 5670 5667 5663 5658 5654 5650 5646 5642 5637 5633 5628 5624 5620 5615 5611 5607 5602 5598 5593 5589 5585 5581 5577 5573